sat.trackr.live / text

‹ back to catalog

FLOCK 4H-20

NORAD 66723 · 2025-276BK

PAYLOAD ACTIVE UNKNOWN

§ Identity

Operator
Country
US
Launch date
2025-11-28
Launch site
AFWTR
Launch vehicle
Mass (kg)
RCS (m²)

Purposes: earth_obs

External: N2YO · Heavens-Above · Gunter

§ Orbital elements

Epoch: 2026-05-25T03:55:59.286432Z

Period
94.68 min
Inclination
97.4220°
Eccentricity
0.0003334
Mean motion
15.20866281 rev/d
Perigee alt
500.9 km
Apogee alt
505.5 km
Semi-major
6,881.4 km
B*
2.6652e-4
RAAN
219.4204°
Arg perigee
50.7124°
Mean anomaly
309.4407°
Rev number
2,619

§ Raw data

FLOCK 4H-201 66723U 25276BK  26145.16388063  .00005819  00000+0  26652-3 0  99952 66723  97.4220 219.4204 0003334  50.7124 309.4407 15.20866281 26198

JSON: /api/v1/satellites/66723 · /tle

For live sub-satellite position, see the globe view (requires WebGL).

§ Visibility from observer

Set your observer location to see the next 7 days of passes ≥ 10°. The values pass through the URL so the page stays shareable.

No JS? Fill the form by hand. The geolocation button needs JavaScript.